This is the latest recevied weather packets stored in our database for station/object KV4OP. If no packets are shown the sender has not sent any weather packets the latest 10 day(s).
| Time | Temp. | Humidity | Pressure | Rain* | Wind** | Luminosity | Snow |
|---|---|---|---|---|---|---|---|
| 1777761322 | 21.67° C | 87% | 1010.1 hPa | 0 mm | - | - | - |
| 1777761021 | 21.67° C | 87% | 1010.6 hPa | 0 mm | - | - | - |
| 1777760721 | 21.67° C | 87% | 1011 hPa | 0.25 mm | - | - | - |
| 1777760421 | 21.67° C | 87% | 1011.1 hPa | 0.25 mm | - | - | - |
| 1777760124 | 21.67° C | 87% | 1011.1 hPa | 0.25 mm | - | - | - |
| 1777759820 | 21.67° C | 87% | 1010.8 hPa | 0.25 mm | - | - | - |
| 1777759520 | 21.67° C | 87% | 1010.9 hPa | 0.25 mm | - | - | - |
| 1777759222 | 21.67° C | 87% | 1010.9 hPa | 0.51 mm | - | - | - |
| 1777758919 | 21.67° C | 87% | 1010.9 hPa | 0.51 mm | - | - | - |
| 1777758620 | 21.67° C | 87% | 1011.1 hPa | 0.76 mm | - | - | - |
| 1777758319 | 21.67° C | 88% | 1010.9 hPa | 0.76 mm | - | - | - |
| 1777758020 | 21.67° C | 87% | 1010.9 hPa | 1.27 mm | - | - | - |
| 1777757719 | 21.67° C | 87% | 1010.8 hPa | 1.52 mm | - | - | - |
| 1777757419 | 21.67° C | 87% | 1010.9 hPa | 2.03 mm | - | - | - |
| 1777757119 | 21.67° C | 87% | 1010.8 hPa | 1.78 mm | - | - | - |
| 1777756819 | 21.67° C | 87% | 1010.7 hPa | 1.78 mm | - | - | - |
| 1777756519 | 21.67° C | 87% | 1010.7 hPa | 2.03 mm | - | - | - |
| 1777756218 | 21.67° C | 87% | 1010.9 hPa | 2.03 mm | - | - | - |
| 1777755917 | 21.67° C | 87% | 1010.2 hPa | 5.84 mm | - | - | - |
| 1777755618 | 21.67° C | 87% | 1010.4 hPa | 6.1 mm | - | - | - |
| 1777755317 | 21.67° C | 86% | 1009.3 hPa | 6.1 mm | - | - | - |
| 1777755017 | 21.67° C | 86% | 1010 hPa | 6.1 mm | - | - | - |
| 1777754718 | 21.67° C | 85% | 1011.1 hPa | 6.86 mm | - | - | - |
| 1777754417 | 21.67° C | 85% | 1010.8 hPa | 9.14 mm | - | - | - |
| 1777754117 | 21.67° C | 85% | 1011.7 hPa | 9.4 mm | - | - | - |
* Rain latest hour (hover to see other rain measurements)
** Current wind speed in m/s (hover to see current wind gust speed)